Location: George Washington National Forest Helicopter Landing Site
(38.6463°N, 79.0851°W)
Time: 17:46:32
(UTC-04:00)

Tiros 1 despin weight - Pass Details

Date: 22 August 2019
Orbit: 593 x 643 km, 48.2° (Epoch: 22 October)

Event Time Altitude Azimuth Distance (km) Brightness Sun altitude
Rises 04:30:25 0° 299° (WNW) 2,866 - -22.7°
Reaches altitude 10° 04:33:00 10° 312° (NW) 1,970 - -22.3°
Exits shadow 04:33:07 11° 313° (NW) 1,931 ? -22.3°
Maximum altitude 04:36:52 27° 11° (N) 1,197 ? -21.7°
Drops below altitude 10° 04:40:47 10° 69° (ENE) 1,995 ? -21.1°
Sets 04:43:25 0° 82° (E) 2,911 ? -20.7°
